Hot Springs, VA

5:15 PM EDT on April 28, 2017 (GMT -0400)
Ingalls

Weather History for KHSP - January, 2013

Change the Weather History Date:

Saturday, January 19, 2013

  Actual Average Record
Temperature  
Mean Temperature 35 °F -  
Max Temperature 42 °F 29 °F 50 °F (2017)
Min Temperature 28 °F 16 °F -7 °F (1997)
Degree Days  
Heating Degree Days 30    
Moisture  
Dew Point 15 °F    
Average Humidity 44    
Maximum Humidity 60    
Minimum Humidity 34    
Precipitation  
Precipitation 0.00 in - - ()
Sea Level Pressure  
Sea Level Pressure 30.19 in    
Wind  
Wind Speed 16 mph (WSW)    
Max Wind Speed 28 mph    
Max Gust Speed 37 mph    
Visibility 10 miles    
Events      
Averages and records for this station are not official NWS values.
T = Trace of Precipitation, MM = Missing Value Source: NWS Daily Summary

Daily Weather History Graph

Daily Weather History Graph

Search for Another Location

Airport or City:

Trip Planner

Search our weather history database for the weather conditions in past years. The results will help you decide how hot, cold, wet, or windy it might be!

Date:

Astronomy

Jan. 19, 2013 Rise Set
Actual Time 7:32 AM EST 5:28 PM EST
Civil Twilight 7:03 AM EST 5:56 PM EST
Nautical Twilight 6:31 AM EST 6:29 PM EST
Astronomical Twilight 6:00 AM EST 7:00 PM EST
Moon 11:52 AM EST (1/19) 1:06 AM EST (1/19)
Length of Visible Light 10h 53m
Length of Day
9h 56m
First Quarter, 57% of the Moon is Illuminated
Jan 19
First Quarter
Jan 26
Full
Feb 3
Last Quarter
Feb 10
New
Feb 17
First Quarter

Hourly Weather History & Observations

Time (EST) Temp. Windchill Dew Point Humidity Pressure Visibility Wind Dir Wind Speed Gust Speed Precip Events Conditions
12:15 AM 28.4 °F 17.0 °F 3.2 °F 34% 30.33 in 10.0 mi WSW 15.0 mph - N/A   Clear
12:35 AM 28.4 °F 16.6 °F 5.0 °F 37% 30.32 in 10.0 mi WSW 16.1 mph - N/A   Clear
12:55 AM 28.4 °F 18.0 °F 5.0 °F 37% 30.32 in 10.0 mi WSW 12.7 mph - N/A   Clear
1:15 AM 28.4 °F 18.0 °F 6.8 °F 40% 30.32 in 10.0 mi WSW 12.7 mph - N/A   Clear
1:35 AM 30.2 °F 20.2 °F 6.8 °F 37% 30.31 in 10.0 mi WSW 12.7 mph - N/A   Clear
1:55 AM 30.2 °F 19.3 °F 6.8 °F 37% 30.31 in 10.0 mi WSW 15.0 mph - N/A   Clear
2:15 AM 30.2 °F 19.3 °F 8.6 °F 40% 30.32 in 10.0 mi WSW 15.0 mph - N/A   Clear
2:35 AM 30.2 °F 19.8 °F 10.4 °F 44% 30.32 in 10.0 mi WSW 13.8 mph - N/A   Clear
2:55 AM 30.2 °F 19.3 °F 12.2 °F 47% 30.31 in 10.0 mi WSW 15.0 mph - N/A   Clear
3:15 AM 30.2 °F 18.9 °F 14.0 °F 51% 30.31 in 10.0 mi WSW 16.1 mph - N/A   Clear
3:35 AM 30.2 °F 18.9 °F 14.0 °F 51% 30.31 in 10.0 mi WSW 16.1 mph - N/A   Clear
3:55 AM 30.2 °F 18.9 °F 15.8 °F 55% 30.30 in 10.0 mi WSW 16.1 mph - N/A   Clear
4:15 AM 30.2 °F 18.5 °F 15.8 °F 55% 30.30 in 10.0 mi WSW 17.3 mph - N/A   Clear
4:35 AM 32.0 °F 19.8 °F 17.6 °F 55% 30.29 in 10.0 mi WSW 20.7 mph - N/A   Clear
4:55 AM 33.8 °F 22.2 °F 17.6 °F 52% 30.29 in 10.0 mi WSW 20.7 mph - N/A   Clear
5:15 AM 32.0 °F 20.5 °F 17.6 °F 55% 30.29 in 10.0 mi WSW 18.4 mph - N/A   Clear
5:35 AM 32.0 °F 20.8 °F 17.6 °F 55% 30.29 in 10.0 mi WSW 17.3 mph - N/A   Clear
5:55 AM 32.0 °F 20.8 °F 17.6 °F 55% 30.29 in 10.0 mi WSW 17.3 mph - N/A   Clear
6:15 AM 30.2 °F 18.1 °F 17.6 °F 60% 30.29 in 10.0 mi WSW 18.4 mph - N/A   Clear
6:35 AM 32.0 °F 20.8 °F 19.4 °F 60% 30.29 in 10.0 mi WSW 17.3 mph - N/A   Clear
6:55 AM 32.0 °F 20.8 °F 19.4 °F 60% 30.29 in 10.0 mi WSW 17.3 mph - N/A   Clear
8:15 AM 33.8 °F 22.8 °F 19.4 °F 56% 30.29 in 10.0 mi WSW 18.4 mph - N/A   Clear
9:15 AM 33.8 °F 22.5 °F 19.4 °F 56% 30.31 in 10.0 mi WSW 19.6 mph 24.2 mph N/A   Clear
9:35 AM 33.8 °F 22.5 °F 19.4 °F 56% 30.31 in 10.0 mi West 19.6 mph 25.3 mph N/A   Clear
10:55 AM 37.4 °F 28.2 °F 17.6 °F 45% 30.30 in 2.5 mi West 16.1 mph 20.7 mph N/A   Haze
11:15 AM 37.4 °F 27.5 °F 17.6 °F 45% 30.29 in - West 18.4 mph 24.2 mph N/A   Clear
11:35 AM 37.4 °F 27.5 °F 17.6 °F 45% 30.27 in 10.0 mi West 18.4 mph 23.0 mph N/A   Clear
11:55 AM 37.4 °F 27.8 °F 17.6 °F 45% 30.25 in 10.0 mi West 17.3 mph 24.2 mph N/A   Clear
12:15 PM 37.4 °F 27.5 °F 17.6 °F 45% 30.24 in 10.0 mi West 18.4 mph - N/A   Clear
12:35 PM 39.2 °F 30.5 °F 17.6 °F 42% 30.22 in 10.0 mi West 16.1 mph 24.2 mph N/A   Clear
12:55 PM 39.2 °F 30.8 °F 17.6 °F 42% 30.21 in 10.0 mi West 15.0 mph 25.3 mph N/A   Clear
1:15 PM 39.2 °F 30.2 °F 19.4 °F 45% 30.20 in 10.0 mi WSW 17.3 mph - N/A   Clear
1:35 PM 39.2 °F 31.2 °F 19.4 °F 45% 30.19 in 10.0 mi West 13.8 mph - N/A   Clear
1:55 PM 39.2 °F 31.2 °F 19.4 °F 45% 30.17 in 10.0 mi WSW 13.8 mph 20.7 mph N/A   Clear
2:15 PM 39.2 °F 31.6 °F 17.6 °F 42% 30.16 in 10.0 mi West 12.7 mph - N/A   Clear
2:35 PM 41.0 °F 33.5 °F 19.4 °F 42% 30.16 in 10.0 mi WSW 13.8 mph - N/A   Clear
2:55 PM 42.8 °F 34.5 °F 17.6 °F 36% 30.15 in 10.0 mi WSW 18.4 mph 21.9 mph N/A   Clear
3:15 PM 41.0 °F 33.1 °F 17.6 °F 39% 30.15 in 10.0 mi WSW 15.0 mph - N/A   Clear
3:35 PM 42.8 °F 35.1 °F 17.6 °F 36% 30.14 in 10.0 mi WSW 16.1 mph - N/A   Clear
3:55 PM 42.8 °F 35.8 °F 17.6 °F 36% 30.13 in 10.0 mi WSW 13.8 mph 18.4 mph N/A   Clear
4:15 PM 41.0 °F 34.3 °F 17.6 °F 39% 30.13 in 10.0 mi SW 11.5 mph - N/A   Clear
4:35 PM 39.2 °F 31.6 °F 17.6 °F 42% 30.12 in 10.0 mi WSW 12.7 mph - N/A   Clear
4:55 PM 39.2 °F 32.0 °F 17.6 °F 42% 30.12 in 10.0 mi WSW 11.5 mph - N/A   Clear
5:15 PM 37.4 °F 29.3 °F 17.6 °F 45% 30.12 in 10.0 mi WSW 12.7 mph 18.4 mph N/A   Clear
5:35 PM 37.4 °F 28.9 °F 15.8 °F 41% 30.11 in 10.0 mi WSW 13.8 mph 20.7 mph N/A   Clear
5:55 PM 37.4 °F 29.3 °F 15.8 °F 41% 30.11 in 10.0 mi SW 12.7 mph 19.6 mph N/A   Clear
6:15 PM 37.4 °F 28.9 °F 15.8 °F 41% 30.10 in 10.0 mi SW 13.8 mph 20.7 mph N/A   Clear
6:35 PM 37.4 °F 27.8 °F 15.8 °F 41% 30.10 in 10.0 mi SW 17.3 mph 21.9 mph N/A   Clear
6:55 PM 37.4 °F 27.2 °F 15.8 °F 41% 30.10 in 10.0 mi WSW 19.6 mph 26.5 mph N/A   Clear
7:15 PM 37.4 °F 27.2 °F 15.8 °F 41% 30.09 in 10.0 mi WSW 19.6 mph 24.2 mph N/A   Clear
7:35 PM 35.6 °F 26.2 °F 17.6 °F 48% 30.09 in 10.0 mi WSW 15.0 mph 21.9 mph N/A   Clear
7:55 PM 35.6 °F 25.5 °F 15.8 °F 44% 30.09 in 10.0 mi WSW 17.3 mph 24.2 mph N/A   Clear
8:15 PM 35.6 °F 24.8 °F 14.0 °F 41% 30.08 in 10.0 mi WSW 19.6 mph 26.5 mph N/A   Clear
8:35 PM 35.6 °F 24.5 °F 12.2 °F 38% 30.08 in 10.0 mi WSW 20.7 mph 25.3 mph N/A   Clear
8:55 PM 35.6 °F 25.5 °F 12.2 °F 38% 30.07 in 10.0 mi WSW 17.3 mph - N/A   Clear
9:15 PM 35.6 °F 25.5 °F 12.2 °F 38% 30.06 in 10.0 mi WSW 17.3 mph 24.2 mph N/A   Clear
9:35 PM 35.6 °F 25.5 °F 12.2 °F 38% 30.06 in 10.0 mi WSW 17.3 mph 25.3 mph N/A   Clear
9:55 PM 35.6 °F 24.5 °F 12.2 °F 38% 30.05 in 10.0 mi WSW 20.7 mph - N/A   Clear
10:15 PM 35.6 °F 24.8 °F 12.2 °F 38% 30.04 in 10.0 mi WSW 19.6 mph 29.9 mph N/A   Clear
10:35 PM 35.6 °F 24.5 °F 12.2 °F 38% 30.03 in 10.0 mi WSW 20.7 mph 27.6 mph N/A   Clear
10:55 PM 35.6 °F 24.2 °F 14.0 °F 41% 30.03 in 10.0 mi West 21.9 mph 28.8 mph N/A   Clear
11:15 PM 35.6 °F 23.4 °F 14.0 °F 41% 30.02 in 10.0 mi West 25.3 mph 31.1 mph N/A   Clear
11:35 PM 37.4 °F 26.1 °F 14.0 °F 38% 30.00 in - West 24.2 mph 36.8 mph N/A   Clear
11:55 PM 35.6 °F 23.0 °F 14.0 °F 41% 30.00 in - West 27.6 mph 32.2 mph N/A   Clear